Flag for Central African Republic Weather past 2 weeks in Bambari, Central African Republic

Now
82 °F

Scattered clouds.


Feels Like: 81 °F
Forecast: 71 / 99 °F
Wind: 5 mph from Northwest

Location: Bangui Airport

Current Time: Dec 20, 2014 at 11:27:50 AM

Latest Report: Dec 20, 2014 at 10:00 AM


Visibility: 5 mi

Pressure: 29.95 "Hg

Humidity: 37%

Dew point: 54 °F

Location of BambariLocation

Historic Weather in Bambari — Graph

°F

Bambari temperature yesterday

Maximum temperature yesterday: 91 °F (at 1:00 PM)
Minimum temperature yesterday: 70 °F (at 11:00 PM)
Average temperature yesterday: 80 °F

Past Weeks' High & Low Weather Summary

 TemperatureHumidityPressure
High93 °F (Dec 5, 2:00 PM)100% (Dec 6, 5:00 AM)29.95 "Hg (Dec 6, 5:00 AM)
Low63 °F (Dec 20, 6:00 AM)34% (Dec 19, 1:00 PM)29.74 "Hg (Dec 5, 3:00 PM)
Average78 °F82%29.85 "Hg
* Reported Dec 5 10:00 AM — Dec 20 10:00 AM, Bambari, Weather by CustomWeather, © 2014

Note: Actual official high and low records may vary slightly from our data, if they occured in-between our weather recording intervals... More about our weather records

Advertising

Bambari weather history for previous 24 hours

 ConditionsComfort  
Time TempWeatherWind HumidityBarometerVisibility
10:00 AM
Dec 20
82 °FScattered clouds.5 mph37%29.95 "Hg5 mi
9:00 AM81 °FFog.1 mph62%29.95 "Hg2 mi
8:00 AM72 °FScattered clouds.No wind83%29.95 "Hg1 mi
7:00 AM66 °FFog.1 mph94%29.95 "Hg2 mi
6:00 AM63 °FScattered clouds.No wind100%29.92 "Hg4 mi
5:00 AM64 °FPassing clouds.No wind94%29.92 "HgN/A
2:00 AM66 °FPassing clouds.No wind94%29.89 "HgN/A
1:00 AM68 °FClear.No wind94%29.89 "Hg10 mi
12:00 AM68 °FClear.2 mph94%29.89 "Hg10 mi
11:00 PM
Dec 19
70 °FClear.2 mph94%29.89 "Hg10 mi
10:00 PM72 °FClear.No wind88%29.89 "Hg4 mi
9:00 PM73 °FClear.1 mph83%29.89 "Hg2 mi
8:00 PM75 °FClear.1 mph83%29.86 "Hg2 mi
7:00 PM77 °FClear.No wind79%29.83 "Hg2 mi
6:00 PM81 °FClear.No wind66%29.83 "Hg4 mi
5:00 PM88 °FSunny.2 mph46%29.80 "Hg10 mi
4:00 PM91 °FPassing clouds.5 mph36%29.83 "HgN/A
3:00 PM91 °FPassing clouds.5 mph41%29.83 "HgN/A
2:00 PM91 °FScattered clouds.3 mph38%29.83 "HgN/A
1:00 PM91 °FScattered clouds.5 mph34%29.86 "HgN/A
12:00 PM90 °FScattered clouds.8 mph46%29.89 "HgN/A
11:00 AM88 °FScattered clouds.3 mph59%29.92 "HgN/A
Weather by CustomWeather, © 2014

See weather overviewHow to use our weather pages